Location: Newark
(48.4472°N, 1.4892°E)
Time: 10:18:21
(UTC+00:00)

Transit 4A - Pass Details

Date: 23 January 2021
Orbit: 866 x 978 km, 66.8° (Epoch: 26 February)

Event Time Altitude Azimuth Distance (km) Brightness Sun altitude
Rises 21:02:56 0° 253° (WSW) 3,675 11.6 -43.1°
Reaches altitude 10° 21:05:51 10° 264° (W) 2,729 10.8 -43.5°
Enters shadow 21:08:43 22° 286° (WNW) 1,974 10.0 -44.0°
